カタログに戻る

STARLINK-34238

運用中通信VLEO
NORAD 65415·PAYLOAD·🇺🇸 United States

打ち上げ Aug 31, 2025 から Cape Canaveral Space Force Station

Loading…

次のパス (今後24時間)

TLE

最新Source: CelesTrak SupGP

元期: Sep 14, 2026, 22:59 UTC

1 65415C 25192M   26257.95812500  .00051499  00000+0  15214-2 0  2571
2 65415  53.1588  71.4321 0001243  78.1798  51.3112 15.34366905    17

AllMySatでSTARLINK-34238をリアルタイム追跡

Download on the App Store